Location: Berg
(47.2344°N, 9.5296°E)
Time: 11:49:53
(UTC+00:00)

ATLAS 5 CENTAUR R/B - Pass Details

Date: 24 January 2021
Orbit: 511 x 1147 km, 63.3° (Epoch: 16 February)

Event Time Altitude Azimuth Distance (km) Brightness Sun altitude
Rises 19:10:18 0° 303° (WNW) 2,889 5.9 -30.0°
Reaches altitude 10° 19:13:50 10° 334° (NNW) 2,112 4.6 -30.6°
Enters shadow 19:15:08 12° 350° (N) 2,016 4.3 -30.9°
